DLH733 EDDF-ZSPD

Flight info

Callsign DLH733
Flight time N/A
Altitude 31000
Route CINDY5L CINDY Z74 HAREM DCT ASLEP DCT TAKUT DCT DINKU L603 BESNI/N0482F370 L605 BIBAG Q104 AKIMA DCT ARSIN DCT TEGRI DCT LUGEB/N0481F390 DCT UDROS UM859 KARDE UL851 TBN UM11 REBLO M11 MATAL T916 LEYLA N161 GASBI/K0895F390 N161 TIROK/K0891F410 N161 SARIN/K0883S1250 A368 FKG W188 LIKMI W270 DKO W64 NUTLO B208 CGO W129 KAMDA W128 FYG B208 HFE R343 SASAN SAS82A
Aircraft A359/H-SADE2E3GHIJ1J2J3J4J5M1P2RWXYZ/LB1D1

Departure

Time N/A
Airport Frankfurt Main Airport (EDDF)

Arrival

Time 2026-05-06 09:17
Airport Shanghai Pudong International Airport (ZSPD)
Time Latitude Longitude Altitude Speed Heading
2026-05-06 05:19 44.52044 87.34262 41173 ft 514 kts 126°
2026-05-06 05:19 44.49877 87.38251 41166 ft 514 kts 126°
2026-05-06 05:20 44.45570 87.46256 41161 ft 514 kts 126°
2026-05-06 05:20 44.41269 87.54181 41166 ft 514 kts 126°
2026-05-06 05:21 44.36922 87.62111 41169 ft 514 kts 126°
2026-05-06 05:21 44.32557 87.70039 41171 ft 514 kts 126°
2026-05-06 05:22 44.28253 87.78014 41175 ft 514 kts 125°
2026-05-06 05:22 44.23965 87.86023 41176 ft 514 kts 126°
2026-05-06 05:23 44.20411 87.94617 41186 ft 511 kts 109°
2026-05-06 05:23 44.19021 88.09060 41197 ft 501 kts 81°
2026-05-06 05:24 44.20244 88.18562 41201 ft 501 kts 76°
2026-05-06 05:24 44.21715 88.28062 41189 ft 501 kts 75°
2026-05-06 05:25 44.23175 88.37567 41189 ft 501 kts 76°
2026-05-06 05:25 44.24591 88.47099 41187 ft 501 kts 76°
2026-05-06 05:26 44.25982 88.56636 41184 ft 502 kts 76°
2026-05-06 05:26 44.27364 88.66196 41176 ft 502 kts 76°
2026-05-06 05:27 44.28737 88.75745 41176 ft 502 kts 76°
2026-05-06 05:27 44.30105 88.85305 41165 ft 502 kts 76°
2026-05-06 05:28 44.31457 88.94809 41159 ft 502 kts 76°
2026-05-06 05:28 44.32811 89.04396 41159 ft 503 kts 76°
2026-05-06 05:29 44.34157 89.13986 41157 ft 503 kts 77°
2026-05-06 05:29 44.35497 89.23586 41157 ft 503 kts 77°
2026-05-06 05:30 44.36818 89.33123 41154 ft 503 kts 77°
2026-05-06 05:30 44.38143 89.42740 41154 ft 503 kts 77°
2026-05-06 05:31 44.39460 89.52370 41151 ft 503 kts 77°
2026-05-06 05:31 44.40754 89.61993 41147 ft 504 kts 78°
2026-05-06 05:32 44.40891 89.71820 41149 ft 509 kts 96°
2026-05-06 05:32 44.39238 89.81412 41148 ft 511 kts 104°
2026-05-06 05:33 44.37162 89.90945 41148 ft 512 kts 105°
2026-05-06 05:33 44.35033 90.00450 41153 ft 512 kts 105°
2026-05-06 05:34 44.32925 90.09959 41149 ft 512 kts 105°
2026-05-06 05:34 44.30828 90.19478 41151 ft 512 kts 105°
2026-05-06 05:35 44.28728 90.28996 41151 ft 512 kts 105°
2026-05-06 05:35 44.26633 90.38452 41166 ft 512 kts 105°
2026-05-06 05:36 44.24514 90.47962 41153 ft 513 kts 105°
2026-05-06 05:36 44.22390 90.57455 41155 ft 513 kts 105°
2026-05-06 05:37 44.20252 90.66965 41160 ft 513 kts 106°
2026-05-06 05:37 44.18109 90.76457 41170 ft 513 kts 106°
2026-05-06 05:38 44.15971 90.85882 41162 ft 513 kts 106°
2026-05-06 05:38 44.13811 90.95365 41167 ft 514 kts 106°
2026-05-06 05:39 44.11645 91.04837 41165 ft 514 kts 106°
2026-05-06 05:39 44.09474 91.14314 41173 ft 514 kts 107°
2026-05-06 05:40 44.07286 91.23796 41169 ft 514 kts 107°
2026-05-06 05:40 44.05092 91.33262 41174 ft 515 kts 107°
2026-05-06 05:41 44.02898 91.42696 41178 ft 515 kts 107°
2026-05-06 05:41 44.00683 91.52152 41175 ft 514 kts 107°
2026-05-06 05:42 43.98440 91.61587 41179 ft 515 kts 108°
2026-05-06 05:42 43.96184 91.71046 41187 ft 515 kts 108°
2026-05-06 05:43 43.93944 91.80420 41185 ft 515 kts 108°
2026-05-06 05:43 43.91681 91.89859 41187 ft 515 kts 108°
2026-05-06 05:44 43.89404 91.99314 41189 ft 516 kts 108°
2026-05-06 05:44 43.87124 92.08742 41187 ft 516 kts 108°
2026-05-06 05:45 43.84846 92.18120 41190 ft 517 kts 108°
2026-05-06 05:45 43.82546 92.27553 41193 ft 517 kts 108°
2026-05-06 05:46 43.80236 92.36990 41193 ft 518 kts 108°
2026-05-06 05:46 43.77910 92.46450 41188 ft 519 kts 108°
2026-05-06 05:47 43.75573 92.55912 41192 ft 520 kts 108°
2026-05-06 05:47 43.73227 92.65375 41187 ft 520 kts 109°
2026-05-06 05:48 43.70869 92.74849 41188 ft 521 kts 109°
2026-05-06 05:48 43.68500 92.84327 41190 ft 522 kts 109°
2026-05-06 05:49 43.66132 92.93764 41198 ft 522 kts 109°
2026-05-06 05:49 43.63760 93.03236 41194 ft 522 kts 108°
2026-05-06 05:50 43.61486 93.12767 41209 ft 523 kts 108°
2026-05-06 05:50 43.59228 93.22313 41209 ft 523 kts 108°
2026-05-06 05:51 43.56941 93.31866 41202 ft 525 kts 108°
2026-05-06 05:51 43.54646 93.41362 41212 ft 526 kts 109°
2026-05-06 05:52 43.52322 93.50921 41202 ft 526 kts 109°
2026-05-06 05:52 43.49987 93.60490 41206 ft 526 kts 109°
2026-05-06 05:53 43.47646 93.70043 41205 ft 526 kts 109°
2026-05-06 05:53 43.45299 93.79583 41200 ft 526 kts 109°
2026-05-06 05:54 43.42956 93.89071 41198 ft 527 kts 109°
2026-05-06 05:54 43.40583 93.98637 41213 ft 528 kts 109°
2026-05-06 05:55 43.38201 94.08199 41211 ft 528 kts 109°
2026-05-06 05:55 43.35810 94.17755 41219 ft 528 kts 109°
2026-05-06 05:56 43.33407 94.27326 41225 ft 531 kts 110°
2026-05-06 05:56 43.30999 94.36874 41228 ft 532 kts 110°
2026-05-06 05:57 43.28567 94.46477 41217 ft 533 kts 110°
2026-05-06 05:57 43.26126 94.56078 41220 ft 532 kts 110°
2026-05-06 05:58 43.23672 94.65692 41215 ft 533 kts 110°
2026-05-06 05:58 43.21210 94.75299 41193 ft 534 kts 110°
2026-05-06 05:59 43.18757 94.84830 41189 ft 534 kts 110°
2026-05-06 05:59 43.16279 94.94418 41176 ft 534 kts 110°
2026-05-06 06:00 43.14063 95.02381 41179 ft 534 kts 117°
2026-05-06 06:00 43.09870 95.10584 41157 ft 528 kts 138°
2026-05-06 06:01 43.04117 95.16742 41158 ft 524 kts 148°
2026-05-06 06:01 42.98068 95.22338 41152 ft 524 kts 149°
2026-05-06 06:02 42.91995 95.27864 41150 ft 524 kts 149°
2026-05-06 06:02 42.85943 95.33425 41150 ft 525 kts 149°
2026-05-06 06:03 42.79927 95.38982 41136 ft 526 kts 149°
2026-05-06 06:03 42.73869 95.44574 41142 ft 526 kts 149°
2026-05-06 06:04 42.67806 95.50155 41118 ft 526 kts 149°
2026-05-06 06:04 42.61739 95.55726 41135 ft 526 kts 149°
2026-05-06 06:05 42.55677 95.61278 41128 ft 526 kts 149°
2026-05-06 06:05 42.49605 95.66826 41129 ft 526 kts 149°
2026-05-06 06:06 42.43943 95.73035 41131 ft 532 kts 135°
2026-05-06 06:06 42.41652 95.77003 41130 ft 536 kts 124°
2026-05-06 06:06 42.39920 95.81474 41135 ft 540 kts 113°
2026-05-06 06:07 42.38826 95.86335 41134 ft 542 kts 101°
2026-05-06 06:07 42.38366 95.91385 41133 ft 542 kts 94°
2026-05-06 06:07 42.38025 96.01590 41135 ft 543 kts 91°
2026-05-06 06:08 42.37828 96.11819 41140 ft 544 kts 91°
2026-05-06 06:08 42.37585 96.22068 41140 ft 545 kts 92°
2026-05-06 06:09 42.37289 96.32325 41142 ft 545 kts 92°
2026-05-06 06:09 42.36969 96.42584 41146 ft 545 kts 92°
2026-05-06 06:10 42.36643 96.52762 41147 ft 546 kts 92°
2026-05-06 06:10 42.36307 96.63030 41147 ft 546 kts 92°
2026-05-06 06:11 42.35963 96.73294 41144 ft 546 kts 92°
2026-05-06 06:11 42.35610 96.83558 41144 ft 546 kts 92°
2026-05-06 06:12 42.35247 96.93841 41137 ft 547 kts 92°
2026-05-06 06:12 42.34874 97.04126 41134 ft 548 kts 92°
2026-05-06 06:13 42.34492 97.14427 41134 ft 548 kts 93°
2026-05-06 06:13 42.34103 97.24658 41133 ft 548 kts 93°
2026-05-06 06:14 42.33703 97.34952 41126 ft 548 kts 93°
2026-05-06 06:14 42.33293 97.45244 41125 ft 548 kts 93°
2026-05-06 06:15 42.32875 97.55520 41126 ft 548 kts 93°
2026-05-06 06:15 42.32447 97.65811 41122 ft 548 kts 93°
2026-05-06 06:16 42.32009 97.76115 41121 ft 549 kts 93°
2026-05-06 06:16 42.31563 97.86371 41120 ft 549 kts 93°
2026-05-06 06:17 42.31107 97.96674 41117 ft 549 kts 93°
2026-05-06 06:17 42.30641 98.06991 41115 ft 550 kts 93°
2026-05-06 06:18 42.30164 98.17324 41118 ft 551 kts 94°
2026-05-06 06:18 42.29679 98.27647 41115 ft 551 kts 94°
2026-05-06 06:19 42.29182 98.37969 41114 ft 551 kts 94°
2026-05-06 06:19 42.28649 98.48297 41119 ft 552 kts 94°
2026-05-06 06:20 42.28100 98.58648 41124 ft 552 kts 94°
2026-05-06 06:20 42.27551 98.68935 41117 ft 552 kts 94°
2026-05-06 06:21 42.26992 98.79282 41124 ft 553 kts 94°
2026-05-06 06:21 42.26423 98.89654 41114 ft 554 kts 94°
2026-05-06 06:22 42.25843 99.00041 41114 ft 554 kts 94°
2026-05-06 06:22 42.25255 99.10406 41138 ft 554 kts 94°
2026-05-06 06:23 42.24657 99.20777 41121 ft 554 kts 94°
2026-05-06 06:23 42.24049 99.31149 41104 ft 554 kts 94°
2026-05-06 06:24 42.23437 99.41458 41104 ft 554 kts 94°
2026-05-06 06:24 42.22811 99.51821 41106 ft 555 kts 94°
2026-05-06 06:25 42.22174 99.62211 41104 ft 556 kts 94°
2026-05-06 06:26 42.21201 99.77792 41106 ft 556 kts 95°
2026-05-06 06:26 42.20540 99.88185 41107 ft 556 kts 95°
2026-05-06 06:27 42.19869 99.98588 41105 ft 557 kts 95°
2026-05-06 06:27 42.19188 100.08996 41105 ft 557 kts 95°
2026-05-06 06:28 42.18497 100.19417 41106 ft 557 kts 95°
2026-05-06 06:28 42.17795 100.29841 41110 ft 558 kts 95°
2026-05-06 06:29 42.17089 100.40198 41108 ft 559 kts 95°
2026-05-06 06:29 42.16368 100.50636 41113 ft 559 kts 95°
2026-05-06 06:30 42.15638 100.61070 41117 ft 559 kts 95°
2026-05-06 06:30 42.14896 100.71526 41116 ft 560 kts 95°
2026-05-06 06:31 42.14149 100.81923 41115 ft 560 kts 95°
2026-05-06 06:31 42.13389 100.92369 41116 ft 560 kts 95°
2026-05-06 06:32 42.12505 101.02805 41115 ft 560 kts 102°
2026-05-06 06:32 42.10329 101.12835 41115 ft 558 kts 110°
2026-05-06 06:33 42.07771 101.22708 41115 ft 558 kts 111°
2026-05-06 06:33 42.05140 101.32552 41098 ft 559 kts 111°
2026-05-06 06:34 42.02520 101.42387 41119 ft 559 kts 111°
2026-05-06 06:34 41.99919 101.52184 41118 ft 559 kts 111°
2026-05-06 06:35 41.97297 101.62045 41119 ft 559 kts 111°
2026-05-06 06:35 41.94671 101.71886 41120 ft 559 kts 111°
2026-05-06 06:36 41.92035 101.81716 41120 ft 560 kts 111°
2026-05-06 06:36 41.89382 101.91568 41121 ft 560 kts 111°
2026-05-06 06:37 41.86725 102.01398 41119 ft 560 kts 111°
2026-05-06 06:37 41.84073 102.11167 41125 ft 561 kts 111°
2026-05-06 06:38 41.81393 102.21004 41124 ft 561 kts 112°
2026-05-06 06:38 41.78707 102.30824 41124 ft 561 kts 112°
2026-05-06 06:39 41.76011 102.40637 41128 ft 561 kts 112°
2026-05-06 06:39 41.73305 102.50453 41129 ft 561 kts 112°
2026-05-06 06:40 41.70592 102.60253 41132 ft 561 kts 112°
2026-05-06 06:40 41.67888 102.69986 41134 ft 561 kts 112°
2026-05-06 06:41 41.65164 102.79775 41139 ft 561 kts 112°
2026-05-06 06:41 41.62427 102.89545 41121 ft 561 kts 112°
2026-05-06 06:42 41.59676 102.99326 41124 ft 561 kts 112°
2026-05-06 06:42 41.56926 103.09093 41127 ft 561 kts 112°
2026-05-06 06:43 41.54173 103.18796 41143 ft 561 kts 113°
2026-05-06 06:43 41.51396 103.28548 41128 ft 561 kts 113°
2026-05-06 06:44 41.48616 103.38281 41128 ft 561 kts 113°
2026-05-06 06:44 41.45827 103.48012 41138 ft 561 kts 113°
2026-05-06 06:45 41.43029 103.57739 41138 ft 562 kts 113°
2026-05-06 06:45 41.40697 103.65817 41131 ft 562 kts 113°
2026-05-06 06:46 41.37425 103.77107 41132 ft 562 kts 113°
2026-05-06 06:46 41.34606 103.86796 41128 ft 561 kts 114°
2026-05-06 06:47 41.32234 103.94920 41144 ft 561 kts 114°
2026-05-06 06:47 41.29418 104.04534 41141 ft 561 kts 114°
2026-05-06 06:48 41.26576 104.14196 41141 ft 561 kts 114°
2026-05-06 06:48 41.23728 104.23847 41146 ft 561 kts 114°
2026-05-06 06:49 41.20871 104.33491 41145 ft 561 kts 114°
2026-05-06 06:49 41.18005 104.43131 41145 ft 561 kts 114°
2026-05-06 06:50 41.15130 104.52765 41145 ft 561 kts 114°
2026-05-06 06:50 41.12248 104.62387 41140 ft 561 kts 114°
2026-05-06 06:51 41.09357 104.71999 41154 ft 561 kts 114°
2026-05-06 06:51 41.06244 104.81472 41149 ft 560 kts 117°
2026-05-06 06:52 41.02996 104.90843 41153 ft 560 kts 117°
2026-05-06 06:52 40.99765 105.00222 41121 ft 560 kts 117°
2026-05-06 06:53 40.96563 105.09607 41150 ft 560 kts 117°
2026-05-06 06:53 40.93384 105.18936 41148 ft 560 kts 117°
2026-05-06 06:54 40.90176 105.28317 41145 ft 559 kts 117°
2026-05-06 06:54 40.86962 105.37678 41143 ft 559 kts 117°
2026-05-06 06:55 40.83742 105.47024 41140 ft 559 kts 117°
2026-05-06 06:55 40.80516 105.56353 41144 ft 559 kts 117°
2026-05-06 06:56 40.77281 105.65679 41133 ft 559 kts 118°
2026-05-06 06:56 40.74043 105.74984 41140 ft 558 kts 118°
2026-05-06 06:57 40.70793 105.84292 41136 ft 558 kts 118°
2026-05-06 06:57 40.67563 105.93512 41132 ft 558 kts 118°
2026-05-06 06:58 40.64309 106.02775 41113 ft 557 kts 118°
2026-05-06 06:58 40.61044 106.12034 41117 ft 557 kts 118°
2026-05-06 06:59 40.57769 106.21292 41110 ft 557 kts 118°
2026-05-06 06:59 40.54494 106.30520 41106 ft 558 kts 118°
2026-05-06 07:00 40.51203 106.39764 41094 ft 558 kts 119°
2026-05-06 07:00 40.47903 106.49004 41079 ft 558 kts 119°
2026-05-06 07:01 40.44594 106.58242 41080 ft 558 kts 119°
2026-05-06 07:01 40.41273 106.67483 41074 ft 558 kts 119°
2026-05-06 07:02 40.37970 106.76642 41075 ft 559 kts 119°
2026-05-06 07:02 40.34633 106.85866 41073 ft 559 kts 119°
2026-05-06 07:03 40.31805 106.95381 41075 ft 565 kts 105°
2026-05-06 07:03 40.31252 107.00488 41074 ft 568 kts 93°
2026-05-06 07:03 40.31269 107.05660 41069 ft 568 kts 88°
2026-05-06 07:04 40.31731 107.16013 41081 ft 570 kts 86°
2026-05-06 07:04 40.32334 107.26371 41079 ft 570 kts 86°
2026-05-06 07:05 40.32899 107.36740 41080 ft 570 kts 86°
2026-05-06 07:05 40.33415 107.47110 41075 ft 570 kts 87°
2026-05-06 07:06 40.33908 107.57487 41078 ft 571 kts 87°
2026-05-06 07:06 40.34393 107.67873 41075 ft 571 kts 87°
2026-05-06 07:07 40.34871 107.78271 41065 ft 571 kts 87°
2026-05-06 07:07 40.35342 107.88688 41069 ft 572 kts 87°
2026-05-06 07:08 40.35800 107.99038 41099 ft 573 kts 87°
2026-05-06 07:08 40.36243 108.09448 41067 ft 572 kts 88°
2026-05-06 07:09 40.36650 108.19870 41065 ft 572 kts 88°
2026-05-06 07:09 40.37046 108.30288 41071 ft 572 kts 88°
2026-05-06 07:10 40.37440 108.40709 41073 ft 572 kts 88°
2026-05-06 07:10 40.37826 108.51125 41067 ft 572 kts 88°
2026-05-06 07:11 40.38204 108.61559 41060 ft 573 kts 88°
2026-05-06 07:11 40.38572 108.72008 41051 ft 573 kts 88°
2026-05-06 07:12 40.38930 108.82438 41059 ft 573 kts 88°
2026-05-06 07:12 40.39278 108.92820 41051 ft 573 kts 89°
2026-05-06 07:13 40.39618 109.03275 41067 ft 574 kts 89°
2026-05-06 07:13 40.39949 109.13728 41025 ft 573 kts 89°
2026-05-06 07:14 40.40271 109.24189 41039 ft 574 kts 89°
2026-05-06 07:14 40.40584 109.34668 41033 ft 574 kts 89°
2026-05-06 07:15 40.40885 109.45079 41029 ft 574 kts 89°
2026-05-06 07:15 40.41179 109.55560 41029 ft 575 kts 89°
2026-05-06 07:16 40.41463 109.66058 41025 ft 575 kts 89°
2026-05-06 07:16 40.41739 109.76568 41029 ft 575 kts 89°
2026-05-06 07:17 40.42004 109.87053 41016 ft 576 kts 89°
2026-05-06 07:17 40.42261 109.97558 41018 ft 576 kts 89°
2026-05-06 07:18 40.42345 110.08053 41033 ft 575 kts 92°
2026-05-06 07:18 40.42223 110.18551 41020 ft 575 kts 92°
2026-05-06 07:19 40.42112 110.29071 41021 ft 576 kts 92°
2026-05-06 07:19 40.42023 110.39590 41018 ft 576 kts 92°
2026-05-06 07:20 40.41939 110.50107 41008 ft 576 kts 92°
2026-05-06 07:20 40.41848 110.60638 41015 ft 577 kts 92°
2026-05-06 07:21 40.41748 110.71109 41014 ft 578 kts 92°
2026-05-06 07:21 40.41636 110.81672 41006 ft 577 kts 92°
2026-05-06 07:22 40.41515 110.92216 41006 ft 578 kts 92°
2026-05-06 07:22 40.41384 111.02756 41011 ft 578 kts 92°
2026-05-06 07:23 40.41243 111.13314 41010 ft 578 kts 93°
2026-05-06 07:23 40.41093 111.23865 41035 ft 578 kts 93°
2026-05-06 07:24 40.40937 111.34358 41004 ft 579 kts 93°
2026-05-06 07:24 40.40767 111.44918 41012 ft 579 kts 93°
2026-05-06 07:25 40.40583 111.55465 41021 ft 579 kts 93°
2026-05-06 07:25 40.40390 111.66037 41020 ft 579 kts 93°
2026-05-06 07:26 40.40190 111.76591 41018 ft 579 kts 93°
2026-05-06 07:26 40.39980 111.87149 41023 ft 579 kts 93°
2026-05-06 07:26 40.39644 111.92389 41030 ft 573 kts 105°
2026-05-06 07:27 40.38450 111.97320 41028 ft 563 kts 120°
2026-05-06 07:27 40.36468 112.01653 41023 ft 548 kts 136°
2026-05-06 07:27 40.33840 112.05144 41026 ft 530 kts 150°
2026-05-06 07:27 40.30759 112.07608 41015 ft 510 kts 166°
2026-05-06 07:28 40.27443 112.08914 41018 ft 489 kts 181°
2026-05-06 07:28 40.24122 112.09026 41021 ft 468 kts 196°
2026-05-06 07:28 40.18116 112.06599 41017 ft 460 kts 200°
2026-05-06 07:29 40.14900 112.05993 41027 ft 474 kts 191°
2026-05-06 07:29 40.11567 112.06081 41019 ft 486 kts 183°
2026-05-06 07:29 40.04808 112.07216 41020 ft 489 kts 182°
2026-05-06 07:30 39.98042 112.08483 41022 ft 493 kts 178°
2026-05-06 07:30 39.91289 112.10005 41026 ft 493 kts 179°
2026-05-06 07:31 39.84524 112.11551 41014 ft 493 kts 179°
2026-05-06 07:31 39.77776 112.13163 41005 ft 493 kts 179°
2026-05-06 07:32 39.71068 112.14794 41013 ft 492 kts 179°
2026-05-06 07:32 39.65464 112.16154 41014 ft 492 kts 179°
2026-05-06 07:33 39.58728 112.17779 40996 ft 492 kts 179°
2026-05-06 07:33 39.51995 112.19403 41014 ft 492 kts 179°
2026-05-06 07:34 39.45291 112.21030 41012 ft 493 kts 178°
2026-05-06 07:34 39.38548 112.22694 41007 ft 493 kts 178°
2026-05-06 07:35 39.31798 112.24361 41007 ft 493 kts 178°
2026-05-06 07:35 39.25059 112.26016 41003 ft 493 kts 178°
2026-05-06 07:36 39.18322 112.27661 41004 ft 493 kts 178°
2026-05-06 07:36 39.11574 112.29305 41001 ft 494 kts 178°
2026-05-06 07:37 39.04828 112.30950 41002 ft 493 kts 178°
2026-05-06 07:37 38.98114 112.32583 41005 ft 494 kts 178°
2026-05-06 07:38 38.91354 112.34230 40986 ft 495 kts 178°
2026-05-06 07:38 38.84571 112.35880 40984 ft 495 kts 178°
2026-05-06 07:39 38.77840 112.37506 40978 ft 495 kts 178°
2026-05-06 07:39 38.71065 112.39136 40979 ft 496 kts 178°
2026-05-06 07:40 38.64293 112.40770 40978 ft 494 kts 178°
2026-05-06 07:40 38.57543 112.42391 40965 ft 493 kts 178°
2026-05-06 07:41 38.50795 112.44008 40960 ft 493 kts 178°
2026-05-06 07:41 38.44051 112.45628 40959 ft 493 kts 178°
2026-05-06 07:42 38.37339 112.47227 40946 ft 489 kts 179°
2026-05-06 07:42 38.30650 112.48798 40941 ft 488 kts 179°
2026-05-06 07:43 38.24012 112.50358 40902 ft 488 kts 179°
2026-05-06 07:43 38.17336 112.51927 40929 ft 487 kts 179°
2026-05-06 07:44 38.10673 112.53480 40928 ft 487 kts 179°
2026-05-06 07:44 38.03985 112.55048 40935 ft 488 kts 179°
2026-05-06 07:45 37.97313 112.56617 40913 ft 487 kts 179°
2026-05-06 07:45 37.90650 112.58177 40911 ft 487 kts 179°
2026-05-06 07:46 37.83979 112.59744 40909 ft 487 kts 179°
2026-05-06 07:46 37.77316 112.61330 40890 ft 487 kts 179°
2026-05-06 07:47 37.70648 112.63072 40912 ft 492 kts 175°
2026-05-06 07:47 37.64016 112.65360 40909 ft 495 kts 174°
2026-05-06 07:48 37.57379 112.67723 40899 ft 495 kts 174°
2026-05-06 07:48 37.50742 112.69995 40894 ft 494 kts 174°
2026-05-06 07:49 37.44085 112.72218 40888 ft 495 kts 174°
2026-05-06 07:49 37.37432 112.74426 40862 ft 495 kts 175°
2026-05-06 07:50 37.30767 112.76642 40853 ft 495 kts 174°
2026-05-06 07:50 37.24100 112.78854 40862 ft 496 kts 174°
2026-05-06 07:51 37.17454 112.81053 40874 ft 497 kts 174°
2026-05-06 07:51 37.10754 112.83266 40871 ft 498 kts 174°
2026-05-06 07:52 37.04047 112.85480 40872 ft 499 kts 174°
2026-05-06 07:52 36.97337 112.87701 40873 ft 499 kts 174°
2026-05-06 07:53 36.90608 112.89916 40875 ft 499 kts 174°
2026-05-06 07:53 36.83886 112.92127 40876 ft 499 kts 174°
2026-05-06 07:54 36.77210 112.94319 40878 ft 500 kts 174°
2026-05-06 07:54 36.70463 112.96531 40878 ft 501 kts 174°
2026-05-06 07:55 36.63716 112.98741 40882 ft 501 kts 174°
2026-05-06 07:55 36.56964 113.00949 40881 ft 501 kts 174°
2026-05-06 07:56 36.50215 113.03151 40878 ft 501 kts 174°
2026-05-06 07:56 36.43464 113.05350 40878 ft 501 kts 174°
2026-05-06 07:57 36.36719 113.07542 40878 ft 501 kts 174°
2026-05-06 07:57 36.29976 113.09729 40873 ft 501 kts 174°
2026-05-06 07:58 36.23236 113.12075 40861 ft 506 kts 169°
2026-05-06 07:58 36.16585 113.14969 40859 ft 507 kts 168°
2026-05-06 07:59 36.09985 113.17940 40826 ft 508 kts 168°
2026-05-06 07:59 36.03346 113.20936 40855 ft 507 kts 168°
2026-05-06 08:00 35.96715 113.23913 40843 ft 507 kts 168°
2026-05-06 08:00 35.90079 113.26878 40849 ft 507 kts 168°
2026-05-06 08:01 35.83476 113.29825 40819 ft 507 kts 167°
2026-05-06 08:01 35.76837 113.32797 40834 ft 507 kts 167°
2026-05-06 08:02 35.70197 113.35763 40828 ft 507 kts 168°
2026-05-06 08:02 35.63557 113.38723 40800 ft 507 kts 168°
2026-05-06 08:03 35.56926 113.41672 40794 ft 506 kts 167°
2026-05-06 08:03 35.50311 113.44602 40798 ft 504 kts 167°
2026-05-06 08:04 35.43705 113.47523 40781 ft 504 kts 167°
2026-05-06 08:04 35.37158 113.50440 40773 ft 504 kts 167°
2026-05-06 08:05 35.30565 113.53374 40758 ft 505 kts 167°
2026-05-06 08:05 35.23938 113.56316 40760 ft 506 kts 167°
2026-05-06 08:06 35.17309 113.59254 40754 ft 507 kts 167°
2026-05-06 08:06 35.10668 113.62193 40750 ft 506 kts 167°
2026-05-06 08:07 35.04074 113.65105 40744 ft 507 kts 167°
2026-05-06 08:07 34.97420 113.68038 40749 ft 508 kts 166°
2026-05-06 08:08 34.90760 113.70970 40754 ft 509 kts 167°
2026-05-06 08:08 34.84095 113.73871 40753 ft 507 kts 168°
2026-05-06 08:09 34.77330 113.76177 40753 ft 504 kts 173°
2026-05-06 08:09 34.70503 113.78263 40750 ft 508 kts 172°
2026-05-06 08:10 34.63655 113.80435 40748 ft 509 kts 172°
2026-05-06 08:10 34.56815 113.82676 40727 ft 509 kts 171°
2026-05-06 08:11 34.49968 113.84938 40747 ft 511 kts 171°
2026-05-06 08:11 34.43094 113.87135 40763 ft 510 kts 172°
2026-05-06 08:12 34.36252 113.89275 40769 ft 510 kts 172°
2026-05-06 08:12 34.29373 113.91432 40758 ft 511 kts 172°
2026-05-06 08:13 34.22478 113.93599 40760 ft 513 kts 172°
2026-05-06 08:13 34.15565 113.95774 40761 ft 513 kts 172°
2026-05-06 08:14 34.08652 113.97947 40768 ft 513 kts 172°
2026-05-06 08:14 34.01742 114.00113 40772 ft 513 kts 172°
2026-05-06 08:15 33.94835 114.02274 40772 ft 513 kts 172°
2026-05-06 08:15 33.87920 114.04434 40774 ft 513 kts 172°
2026-05-06 08:16 33.81055 114.06575 40763 ft 513 kts 172°
2026-05-06 08:16 33.74133 114.08728 40771 ft 515 kts 172°
2026-05-06 08:17 33.67188 114.10886 40770 ft 516 kts 172°
2026-05-06 08:17 33.60236 114.13044 40772 ft 516 kts 172°
2026-05-06 08:18 33.53281 114.15200 40764 ft 516 kts 172°
2026-05-06 08:18 33.46334 114.17387 40772 ft 517 kts 169°
2026-05-06 08:19 33.39792 114.21177 40772 ft 533 kts 149°
2026-05-06 08:19 33.36982 114.24102 40777 ft 540 kts 137°
2026-05-06 08:19 33.34668 114.27670 40782 ft 546 kts 124°
2026-05-06 08:20 33.31977 114.34544 40781 ft 551 kts 113°
2026-05-06 08:20 33.29298 114.43139 40784 ft 552 kts 111°
2026-05-06 08:21 33.26694 114.51778 40787 ft 553 kts 111°
2026-05-06 08:21 33.24055 114.60414 40787 ft 553 kts 112°
2026-05-06 08:22 33.21380 114.69025 40788 ft 553 kts 112°
2026-05-06 08:22 33.18689 114.77625 40795 ft 553 kts 112°
2026-05-06 08:23 33.15996 114.86153 40794 ft 552 kts 112°
2026-05-06 08:23 33.13279 114.94731 40795 ft 552 kts 112°
2026-05-06 08:24 33.10561 115.03302 40796 ft 552 kts 112°
2026-05-06 08:24 33.07843 115.11857 40799 ft 551 kts 112°
2026-05-06 08:25 33.05119 115.20406 40799 ft 551 kts 112°
2026-05-06 08:25 33.02391 115.28946 40801 ft 551 kts 112°
2026-05-06 08:26 32.99659 115.37474 40800 ft 551 kts 112°
2026-05-06 08:26 32.96924 115.45997 40807 ft 551 kts 112°
2026-05-06 08:27 32.94232 115.54550 40809 ft 551 kts 112°
2026-05-06 08:27 32.91575 115.63035 40810 ft 551 kts 112°
2026-05-06 08:28 32.88731 115.71482 40816 ft 549 kts 120°
2026-05-06 08:28 32.84446 115.78917 40817 ft 543 kts 132°
2026-05-06 08:29 32.79632 115.85837 40815 ft 543 kts 134°
2026-05-06 08:29 32.74740 115.92670 40820 ft 543 kts 134°
2026-05-06 08:30 32.69857 115.99514 40824 ft 543 kts 134°
2026-05-06 08:30 32.64990 116.06367 40805 ft 543 kts 133°
2026-05-06 08:31 32.60157 116.13177 40823 ft 542 kts 133°
2026-05-06 08:31 32.55291 116.20028 40829 ft 542 kts 133°
2026-05-06 08:32 32.50504 116.26965 40830 ft 543 kts 132°
2026-05-06 08:32 32.45750 116.33925 40832 ft 543 kts 132°
2026-05-06 08:33 32.40979 116.40875 40835 ft 544 kts 132°
2026-05-06 08:33 32.36198 116.47803 40834 ft 543 kts 132°
2026-05-06 08:34 32.29006 116.58184 40824 ft 543 kts 132°
2026-05-06 08:35 32.24241 116.65049 40840 ft 544 kts 132°
2026-05-06 08:35 32.19438 116.71957 40834 ft 544 kts 132°
2026-05-06 08:36 32.14596 116.78822 40829 ft 544 kts 133°
2026-05-06 08:36 32.09685 116.85610 40833 ft 544 kts 134°
2026-05-06 08:37 32.04763 116.92402 40831 ft 544 kts 133°
2026-05-06 08:37 31.99857 116.99187 40827 ft 544 kts 133°
2026-05-06 08:38 31.94958 117.05983 40832 ft 544 kts 133°
2026-05-06 08:38 31.90073 117.12766 40835 ft 544 kts 133°
2026-05-06 08:39 31.85169 117.19561 40858 ft 544 kts 133°
2026-05-06 08:39 31.80486 117.26479 40863 ft 547 kts 124°
2026-05-06 08:40 31.77455 117.34733 40863 ft 549 kts 103°
2026-05-06 08:40 31.76460 117.43558 40865 ft 549 kts 94°
2026-05-06 08:41 31.75879 117.52502 40869 ft 549 kts 93°
2026-05-06 08:41 31.75322 117.61454 40872 ft 549 kts 93°
2026-05-06 08:42 31.74718 117.70388 40870 ft 548 kts 94°
2026-05-06 08:42 31.74082 117.79328 40873 ft 548 kts 94°
2026-05-06 08:43 31.73436 117.88262 40877 ft 549 kts 94°
2026-05-06 08:43 31.72785 117.97191 40888 ft 549 kts 94°
2026-05-06 08:44 31.72128 118.06139 40872 ft 550 kts 94°
2026-05-06 08:44 31.71480 118.15033 40875 ft 549 kts 94°
2026-05-06 08:45 31.70861 118.23973 40869 ft 549 kts 94°
2026-05-06 08:45 31.70242 118.32907 40877 ft 549 kts 94°
2026-05-06 08:46 31.69612 118.41831 40878 ft 548 kts 94°
2026-05-06 08:46 31.68975 118.50737 40880 ft 547 kts 94°
2026-05-06 08:47 31.68332 118.59628 40883 ft 546 kts 94°
2026-05-06 08:47 31.67690 118.68414 40884 ft 534 kts 94°
2026-05-06 08:47 31.67370 118.72746 40767 ft 531 kts 94°
2026-05-06 08:48 31.67051 118.77063 40392 ft 529 kts 94°
2026-05-06 08:48 31.66733 118.81361 39964 ft 528 kts 94°
2026-05-06 08:48 31.66414 118.85642 39543 ft 525 kts 94°
2026-05-06 08:48 31.66097 118.89889 39149 ft 522 kts 94°
2026-05-06 08:49 31.65778 118.94132 38757 ft 520 kts 94°
2026-05-06 08:49 31.65469 118.98220 38339 ft 519 kts 94°
2026-05-06 08:49 31.65279 119.00738 38063 ft 518 kts 94°
2026-05-06 08:49 31.64986 119.04626 37641 ft 518 kts 95°
2026-05-06 08:50 31.64708 119.08844 37192 ft 519 kts 93°
2026-05-06 08:50 31.64488 119.13081 36751 ft 521 kts 92°
2026-05-06 08:50 31.64294 119.17345 36340 ft 524 kts 92°
2026-05-06 08:50 31.64121 119.21626 35942 ft 526 kts 92°
2026-05-06 08:51 31.63951 119.25919 35549 ft 527 kts 92°
2026-05-06 08:51 31.63777 119.30167 35164 ft 528 kts 92°
2026-05-06 08:51 31.63593 119.34474 34789 ft 529 kts 92°
2026-05-06 08:51 31.63401 119.38782 34397 ft 528 kts 92°
2026-05-06 08:52 31.63201 119.43068 33986 ft 526 kts 92°
2026-05-06 08:52 31.62998 119.47348 33530 ft 522 kts 92°
2026-05-06 08:52 31.62796 119.51561 33082 ft 514 kts 93°
2026-05-06 08:52 31.62596 119.55726 32636 ft 508 kts 93°
2026-05-06 08:53 31.62397 119.59839 32202 ft 501 kts 93°
2026-05-06 08:53 31.62199 119.63899 31760 ft 495 kts 93°
2026-05-06 08:53 31.62003 119.67907 31334 ft 490 kts 93°
2026-05-06 08:53 31.61817 119.71873 30921 ft 484 kts 93°
2026-05-06 08:54 31.61640 119.75790 30503 ft 479 kts 93°
2026-05-06 08:54 31.61463 119.79684 30091 ft 474 kts 94°
2026-05-06 08:54 31.61286 119.83530 29637 ft 470 kts 93°
2026-05-06 08:54 31.61108 119.87339 29152 ft 465 kts 93°
2026-05-06 08:55 31.60932 119.91117 28681 ft 461 kts 93°
2026-05-06 08:55 31.60755 119.94862 28212 ft 457 kts 93°
2026-05-06 08:55 31.60581 119.98530 27767 ft 453 kts 94°
2026-05-06 08:55 31.60406 120.02200 27318 ft 449 kts 94°
2026-05-06 08:56 31.60231 120.05845 26876 ft 446 kts 94°
2026-05-06 08:56 31.60056 120.09458 26439 ft 442 kts 94°
2026-05-06 08:56 31.59881 120.13043 26005 ft 438 kts 93°
2026-05-06 08:56 31.59707 120.16597 25582 ft 434 kts 93°
2026-05-06 08:57 31.59534 120.20116 25170 ft 430 kts 93°
2026-05-06 08:57 31.59362 120.23603 24752 ft 426 kts 93°
2026-05-06 08:57 31.59191 120.27058 24353 ft 422 kts 93°
2026-05-06 08:57 31.58996 120.30472 23952 ft 418 kts 96°
2026-05-06 08:58 31.58406 120.33780 23558 ft 412 kts 109°
2026-05-06 08:58 31.57508 120.36951 23108 ft 408 kts 111°
2026-05-06 08:58 31.56574 120.40082 22641 ft 404 kts 110°
2026-05-06 08:58 31.55651 120.43177 22186 ft 400 kts 110°
2026-05-06 08:59 31.54739 120.46243 21724 ft 397 kts 110°
2026-05-06 08:59 31.53838 120.49281 21293 ft 393 kts 110°
2026-05-06 08:59 31.52944 120.52298 20857 ft 389 kts 110°
2026-05-06 08:59 31.52071 120.55243 20429 ft 386 kts 110°
2026-05-06 09:00 31.51195 120.58201 20007 ft 382 kts 110°
2026-05-06 09:00 31.50326 120.61131 19596 ft 379 kts 111°
2026-05-06 09:00 31.49462 120.64041 19182 ft 376 kts 111°
2026-05-06 09:00 31.48610 120.66908 18761 ft 368 kts 111°
2026-05-06 09:01 31.47786 120.69684 18392 ft 357 kts 111°
2026-05-06 09:01 31.46966 120.72436 18012 ft 356 kts 111°
2026-05-06 09:01 31.46154 120.75159 17610 ft 352 kts 111°
2026-05-06 09:01 31.45351 120.77853 17210 ft 348 kts 111°
2026-05-06 09:02 31.44556 120.80516 16810 ft 344 kts 111°
2026-05-06 09:02 31.43745 120.83140 16413 ft 341 kts 111°
2026-05-06 09:02 31.42930 120.85738 16028 ft 339 kts 111°
2026-05-06 09:02 31.42132 120.88288 15650 ft 336 kts 111°
2026-05-06 09:03 31.41333 120.90847 15271 ft 334 kts 111°
2026-05-06 09:03 31.40649 120.93431 14896 ft 332 kts 102°
2026-05-06 09:03 31.40540 120.96113 14531 ft 330 kts 83°
2026-05-06 09:03 31.41087 120.98705 14166 ft 326 kts 70°
2026-05-06 09:04 31.41836 121.01205 13800 ft 325 kts 69°
2026-05-06 09:04 31.42598 121.03691 13409 ft 323 kts 69°
2026-05-06 09:04 31.43348 121.06162 13004 ft 321 kts 70°
2026-05-06 09:04 31.44089 121.08621 12622 ft 319 kts 70°
2026-05-06 09:05 31.44706 121.11099 12219 ft 316 kts 79°
2026-05-06 09:05 31.44824 121.12791 11976 ft 314 kts 92°
2026-05-06 09:05 31.44634 121.15327 11636 ft 312 kts 98°
2026-05-06 09:05 31.44350 121.17845 11298 ft 311 kts 98°
2026-05-06 09:06 31.44064 121.20348 10969 ft 309 kts 98°
2026-05-06 09:06 31.43705 121.23653 10541 ft 308 kts 98°
2026-05-06 09:06 31.43430 121.26131 10211 ft 306 kts 97°
2026-05-06 09:06 31.43161 121.28593 9893 ft 304 kts 97°
2026-05-06 09:07 31.42981 121.30251 9657 ft 304 kts 97°
2026-05-06 09:07 31.42712 121.32707 9302 ft 303 kts 98°
2026-05-06 09:07 31.42447 121.35143 8947 ft 300 kts 98°
2026-05-06 09:07 31.42185 121.37548 8596 ft 297 kts 98°
2026-05-06 09:08 31.41837 121.40724 8157 ft 297 kts 98°
2026-05-06 09:08 31.41662 121.42312 7932 ft 295 kts 98°
2026-05-06 09:08 31.41405 121.44671 7589 ft 290 kts 98°
2026-05-06 09:08 31.41154 121.46997 7261 ft 286 kts 99°
2026-05-06 09:09 31.40902 121.49285 6932 ft 282 kts 100°
2026-05-06 09:09 31.40650 121.51542 6602 ft 278 kts 99°
2026-05-06 09:09 31.40402 121.53769 6275 ft 274 kts 99°
2026-05-06 09:09 31.40158 121.55961 5936 ft 269 kts 99°
2026-05-06 09:10 31.39743 121.58065 5579 ft 263 kts 110°
2026-05-06 09:10 31.39148 121.60067 5261 ft 259 kts 113°
2026-05-06 09:10 31.38538 121.62026 4916 ft 250 kts 113°
2026-05-06 09:10 31.37959 121.63886 4582 ft 236 kts 112°
2026-05-06 09:11 31.37413 121.65650 4247 ft 225 kts 112°
2026-05-06 09:11 31.36894 121.67331 4037 ft 214 kts 113°
2026-05-06 09:11 31.36410 121.68905 4022 ft 196 kts 114°
2026-05-06 09:11 31.35927 121.70316 3999 ft 179 kts 122°
2026-05-06 09:12 31.35103 121.71351 4000 ft 173 kts 151°
2026-05-06 09:12 31.34006 121.71886 3895 ft 170 kts 164°
2026-05-06 09:12 31.32869 121.72265 3597 ft 171 kts 164°
2026-05-06 09:12 31.31740 121.72684 3266 ft 169 kts 163°
2026-05-06 09:13 31.30651 121.73098 2968 ft 159 kts 163°
2026-05-06 09:13 31.29653 121.73464 2743 ft 145 kts 162°
2026-05-06 09:13 31.28738 121.73807 2539 ft 132 kts 162°
2026-05-06 09:13 31.27881 121.74147 2374 ft 130 kts 161°
2026-05-06 09:14 31.27006 121.74477 2237 ft 133 kts 163°
2026-05-06 09:14 31.26117 121.74805 2102 ft 135 kts 163°
2026-05-06 09:14 31.25212 121.75143 1935 ft 139 kts 162°
2026-05-06 09:14 31.24280 121.75505 1710 ft 143 kts 161°
2026-05-06 09:15 31.23326 121.75869 1505 ft 146 kts 161°
2026-05-06 09:15 31.22362 121.76239 1308 ft 146 kts 163°
2026-05-06 09:15 31.21387 121.76605 1135 ft 149 kts 162°
2026-05-06 09:15 31.20390 121.76983 921 ft 150 kts 162°
2026-05-06 09:16 31.19421 121.77351 695 ft 141 kts 162°
2026-05-06 09:16 31.18521 121.77695 491 ft 133 kts 162°
2026-05-06 09:16 31.17635 121.78028 371 ft 135 kts 163°
2026-05-06 09:16 31.16759 121.78356 224 ft 130 kts 160°
2026-05-06 09:17 31.15911 121.78681 54 ft 127 kts 161°
2026-05-06 09:17 31.15104 121.78987 30 ft 107 kts 162°
2026-05-06 09:17 31.14641 121.79156 30 ft 57 kts 162°
2026-05-06 09:17 31.14324 121.79281 28 ft 40 kts 161°
2026-05-06 09:18 31.14135 121.79406 27 ft 20 kts 133°
2026-05-06 09:18 31.14088 121.79468 27 ft 8 kts 131°
2026-05-06 09:18 31.14049 121.79529 29 ft 11 kts 120°
2026-05-06 09:18 31.14074 121.79595 29 ft 10 kts
2026-05-06 09:19 31.14160 121.79562 29 ft 16 kts 339°
2026-05-06 09:19 31.14285 121.79512 29 ft 22 kts 342°
2026-05-06 09:19 31.14444 121.79452 29 ft 25 kts 343°
2026-05-06 09:19 31.14540 121.79502 29 ft 14 kts 64°
2026-05-06 09:20 31.14576 121.79617 29 ft 14 kts 71°
2026-05-06 09:20 31.14580 121.79632 29 ft 0 kts 71°
2026-05-06 09:20 31.14584 121.79646 29 ft 6 kts 72°
2026-05-06 09:20 31.14614 121.79704 29 ft 10 kts 44°
2026-05-06 09:21 31.14659 121.79776 29 ft 8 kts 67°
2026-05-06 09:21 31.14672 121.79818 29 ft 3 kts 71°
2026-05-06 09:21 31.14676 121.79832 29 ft 2 kts 71°
2026-05-06 09:21 31.14679 121.79840 29 ft 0 kts 71°
2026-05-06 09:22 31.14679 121.79841 29 ft 0 kts 71°